OBJECT L, 51834

Orbit data source: Space-Track

You're viewing an Uncataloged Satellite

Recently launched and/or uncataloged satellites may have evolving metadata. Metadata may include but not limited to: Owner, Maufacturer, Bus, Motor, and Mission.

OBJECT L, 51834 is a satellite owned by Changguang WJ (CN) in SSO that was launched on Sun, 27 Feb 2022 UTC via a CHANG ZHENG 8 launch vehicle from the Wenchang Satellite Launch Center (WSC). Unknown objects in Earth's orbit typically refer to objects detected orbiting the Earth but have not yet been identified or cataloged. These objects could be anything from previously untracked satellites, spent rocket stages, debris from satellite collisions, or even natural meteoroids temporarily captured by Earth's gravity.

Loading next visibility...
Identifier
51834, 2022-019L
Orbit
SSO
Last TLE update
6 hours ago
Origin
Manufacturer
Changguang WJ
Mission
Operational Commercial Imaging
Bus & Motor
JL-1, Unknown motor
Mass
43 kg wet, 43 kg dry
Launch date (UTC)
2022-02-27 (3 years ago)
Launch vehicle
CHANG ZHENG 8
Launch site
Wenchang Satellite Launch Center (WSC)
Object type
Unknown
Shape & HBR
Box + 2 Pan, 1.5 m
Radar Cross Section
2.000 m², Medium (>0.1 m² and < 1m²)

Expand to show TLE details & history

TLE from 6 hours ago
0 OBJECT L
1 51834U 22019L   25182.48317636  .00019445  00000-0  43459-3 0  9992
2 51834  97.3940 263.0469 0005266 326.7701  33.3216 15.43537112185475
Epoch: 2025-07-01T11:35Z
TLE epoch observation values (Epoch: 2025-07-01T11:35:46.437Z)
Latitude
0.00002°
Longitude
169.32543°
Altitude
435.804 km
Speed
7.652 km/s
True Right ascension
17h 32m 11s
True Declination
0° 00' 00"
Sunlit
Object was in full shadow at epoch
Visualization orbit readout
Latitude
39.16497°
Longitude
163.56199°
Altitude
440.267 km
Speed
7.652 km/s
Apparent Right ascension
17h 23m 31s
Apparent Declination
1° 12' 14"
Sunlit
Object is in full shadow
Visualization observer readout
Local Sidereal Time
05:39:04
Azimuth
5.897° NNE
Elevation
-48.726°
Doppler factor
1
Orbital elements
Apogee altitude
436.2 km
Perigee altitude
429.027 km
Semi-major axis
6,810.751 km
Eccentricity
0.00053
Inclination
97.394°
RAAN
263.0469°
Arg. of periapsis
326.7701°
True anomaly
Unknown
Mean anomaly
33.3216°
Eccentric anomaly
Unknown
Mean motion
3.86145 °/min
Orbital period
93.23 mins
BSTAR
0.00043459
Loading maneuver chart data...
Loading SW <> Apogee altitude chart data...
Loading historical data...
Loading historical data...
Loading historical data...
Loading historical data...
Loading historical data...
Loading historical data...
Loading historical data...

OBJECT L Visibility forecast

Observer location: undefined°, undefined°

Span
Click to sort rows by Start time (UTC) header in descending order
Start Az.
Max El. time (UTC)
Max El. Az.
Max El.
End time (UTC)
End Az.
6 mins2025-07-01 18:22:22.875Z6.617° NNE2025-07-01 18:25:22.875Z270.499° WNW43.25°2025-07-01 18:28:22.875Z200.061° SSW
4 mins2025-07-02 17:44:22.875Z52.903° ENE2025-07-02 17:46:22.875Z113.079° SE24.692°2025-07-02 17:48:22.875Z154.738° SSE
|